This demonstration page uses our WeatherBlox Daily Observations layout. Learn more.

Left ArrowRight Arrow

44.31136, -96.79839

Hourly Observations for May 30, 2022

Temp ( °F °C ) Dew Point ( °F °C ) Humidity (%) Winds ( mph kmh ) Pressure ( in mb ) Visibility ( mi km ) Precip ( " mm )
12:56 am 00:56 Partly Cloudy with Light Rain 66 18.9 66 18.9 100 100 ENE 6 9 29.34 994 10 16 0.22 5.59
1:56 am 01:56 Clear 68 20 67 19.4 96 96 SSE 3 6 29.36 994 10 16 0.00 0.00
2:08 am 02:08 Partly Cloudy with Nearby Thunderstorms 61 16 59 15 94 94 W 40 65 29.32 993 7 11 0.00 0.00
2:21 am 02:21 Mostly Cloudy with Thunderstorms 61 16 59 15 94 94 W 36 57 29.36 994 10 16 0.00 0.00
2:56 am 02:56 Cloudy with Thunderstorms 58 14.4 57 13.9 97 97 WSW 8 13 29.48 998 10 16 0.00 0.00
3:26 am 03:26 Cloudy with Rain 59 15 57 14 94 94 WSW 10 17 29.46 998 8 13 0.08 2.03
3:42 am 03:42 Cloudy with Nearby Thunderstorms 59 15 57 14 94 94 W 9 15 29.44 997 6 10 0.15 3.81
3:56 am 03:56 Cloudy with Nearby Thunderstorms 59 15 59 15 100 100 SW 7 11 29.48 998 10 16 0.17 4.32
4:12 am 04:12 Cloudy with Light Rain 59 15 57 14 94 94 SSE 8 13 29.43 997 10 16 0.03 0.76
4:56 am 04:56 Partly Cloudy 59 15 58 14.4 96 96 Calm 29.34 994 10 16 0.04 1.02
5:56 am 05:56 Sunny 59 15 58 14.4 96 96 SW 12 19 29.43 997 10 16 0.00 0.00
6:48 am 06:48 Cloudy with Light Rain 59 15 57 14 94 94 SW 15 24 29.48 998 9 14 0.02 0.51
6:56 am 06:56 Cloudy with Light Rain 59 15 59 15 100 100 SSW 21 33 29.55 1001 10 16 0.02 0.51
7:03 am 07:03 Cloudy with Light Rain 59 15 57 14 94 94 SSW 18 30 29.51 999 10 16 0.00 0.00
7:15 am 07:15 Cloudy with Light Rain 59 15 57 14 94 94 SW 22 35 29.53 1000 10 16 0.01 0.25
7:23 am 07:23 Cloudy with Light Rain 57 14 57 14 100 100 SW 16 26 29.53 1000 9 14 0.02 0.51
7:31 am 07:31 Cloudy with Light Rain 57 14 57 14 100 100 W 5 7 29.46 997 7 11 0.04 1.02
7:56 am 07:56 Mostly Cloudy with Light Rain 59 15 58 14.4 96 96 NNE 10 17 29.34 994 10 16 0.04 1.02
8:36 am 08:36 Mostly Cloudy 59 15 57 14 94 94 SE 28 44 29.40 996 10 16 0.00 0.00
8:56 am 08:56 Mostly Cloudy 61 16.1 59 15 93 93 SSE 21 33 29.46 998 10 16 0.00 0.00
9:19 am 09:19 Partly Cloudy 61 16 59 15 94 94 SE 20 31 29.37 995 10 16 0.00 0.00
9:56 am 09:56 Sunny 64 17.8 59 15 84 84 SSE 13 20 29.44 997 10 16 0.00 0.00
10:56 am 10:56 Partly Cloudy 67 19.4 59 15 76 76 SSE 14 22 29.44 997 10 16 0.00 0.00
11:56 am 11:56 Cloudy 67 19.4 60 15.6 79 79 ESE 14 22 29.40 996 10 16 0.00 0.00
12:21 pm 12:21 Cloudy 70 21 63 17 78 78 SE 20 31 29.30 992 10 16 0.00 0.00
12:37 pm 12:37 Cloudy with Light Rain 66 19 64 18 94 94 SE 22 35 29.31 992 10 16 0.00 0.00
12:56 pm 12:56 Cloudy 71 21.7 64 17.8 79 79 ESE 21 33 29.33 993 10 16 0.00 0.00
1:56 pm 13:56 Cloudy with Light Rain 69 20.6 67 19.4 93 93 SE 20 31 29.29 992 9 14 0.01 0.25
2:28 pm 14:28 Cloudy with Nearby Thunderstorms 70 21 68 20 94 94 SSE 18 30 29.24 990 10 16 0.00 0.00
2:41 pm 14:41 Very Windy with Storms Likely 57 14 55 13 94 94 WNW 45 72 29.32 993 3 5 0.01 0.25
2:48 pm 14:48 Cloudy with Nearby Thunderstorms 55 13 55 13 100 100 WNW 31 50 29.31 993 2 3 0.02 0.51
2:52 pm 14:52 Cloudy with Nearby Thunderstorms 55 13 55 13 100 100 WNW 26 43 29.29 992 3 5 0.02 0.51
2:56 pm 14:56 Cloudy with Thunderstorms 56 13.3 55 12.8 97 97 WNW 24 39 29.35 994 5 8 0.04 1.02
3:41 pm 15:41 Mostly Cloudy with Light Rain 57 14 57 14 100 100 NE 7 11 29.29 992 10 16 0.04 1.02
3:56 pm 15:56 Mostly Cloudy 58 14.4 57 13.9 97 97 NE 9 15 29.32 993 10 16 0.04 1.02
4:56 pm 16:56 Cloudy 65 18.3 62 16.7 90 90 VRB 3 6 29.35 994 10 16 0.00 0.00
5:56 pm 17:56 Sunny 72 22.2 59 15 64 64 SW 17 28 29.36 994 10 16 0.00 0.00
6:37 pm 18:37 Mostly Cloudy with Nearby Thunderstorms 64 18 55 13 73 73 SSW 39 63 29.34 994 8 13 0.00 0.00
6:56 pm 18:56 Cloudy with Light Rain 56 13.3 55 12.8 97 97 SW 9 15 29.39 995 10 16 0.05 1.27
7:56 pm 19:56 Sunny 58 14.4 56 13.3 93 93 SSW 14 22 29.39 995 10 16 0.00 0.00
8:56 pm 20:56 Sunny 60 15.6 54 12.2 80 80 SSW 15 24 29.37 995 10 16 0.00 0.00
9:56 pm 21:56 Cloudy 61 16.1 56 13.3 84 84 SSW 6 9 29.41 996 10 16 0.00 0.00
10:08 pm 22:08 Cloudy 61 16 55 13 83 83 SSW 20 31 29.36 994 10 16 0.00 0.00
10:25 pm 22:25 Cloudy 61 16 50 10 68 68 SSW 23 37 29.36 994 10 16 0.00 0.00
10:56 pm 22:56 Mostly Cloudy 57 13.9 50 10 78 78 SSW 18 30 29.41 996 10 16 0.00 0.00
11:29 pm 23:29 Cloudy 57 14 52 11 82 82 SSW 17 28 29.38 995 10 16 0.00 0.00
11:56 pm 23:56 Cloudy 58 14.4 54 12.2 87 87 SW 18 30 29.42 996 10 16 0.00 0.00

Powered by AerisWeather